Vertical_Velocity
1 0 5 1 2 1 -1 -0 -3 0 -2 -1 -2 2 -1 -1 -1 -1 -3 -1 -0 -1 2 1 -1 2 2 0 -1 1 -0 -1
1 2 -0 5 1 1 -0 -2 -2 -1 -0 -2 -1 -1 -2 -1 -1 -1 -2 -2 -3 -2 -0 -0 -1 -2 -3 1 -2 -2 -4 1
-5 0 1 5 -1 -2 -2 -0 -4 -1 1 -2 -1 -0 -0 -1 0 -1 -2 -3 -1 -1 -0 1 3 -1 -2 1 -1 -4 -4 -4
-2 1 1 1 1 -1 1 -1 1 -1 1 1 1 2 3 4 -3 -2 -2 -1 -3 -3 -1 -0 -3 1 -2 -2 0 2 -2 -6
0 2 3 5 4 1 0 -2 -0 -2 -2 -1 -0 1 -1 -3 0 1 -1 1 2 0 -1 -2 1 -0 -0 -1 -1 -1 2 -6
3 0 4 4 2 2 -0 -2 -2 -2 -3 -1 -1 -1 -2 -2 -2 -2 -1 -1 0 2 0 0 -0 0 0 -1 -3 -0 3 -0
6 -1 1 2 2 2 0 1 0 -2 -4 -4 -3 -3 -3 -4 -1 -2 -1 -3 -0 0 -1 1 2 1 -1 -1 -1 -2 -2 -1
-0 -2 -5 5 3 4 1 -1 0 -2 -2 -1 -2 -3 -2 -1 -2 -1 -5 -1 -1 1 -4 -3 -4 -1 1 2 -2 -3 1 3
-2 -4 6 -3 3 3 1 0 -1 -1 -1 -0 -0 -2 1 -1 -1 -1 1 -0 -0 -2 -3 -3 -2 0 1 1 -2 -1 0 -0
-3 5 0 2 3 -0 -1 -1 -0 -1 -1 -2 -2 -3 -3 -2 -3 -3 -0 -0 -1 -1 2 -0 -1 -4 -1 -2 0 0 2 -2
3 -1 -0 4 5 1 -1 -1 -1 -2 -2 -2 -2 -2 -3 -2 -2 -2 -3 -1 -2 -2 -3 -2 -3 -0 1 1 -1 0 2 -2
0 1 3 5 2 2 1 -1 -1 -1 -1 0 1 2 2 1 -2 -4 -3 -4 -0 -2 -2 -2 1 -2 -0 -0 2 -3 -1 1
1 3 1 3 3 0 1 -0 -0 1 -1 0 -1 -1 -0 1 2 1 -3 -6 -2 -1 -0 0 1 0 -0 -1 -2 1 -1 -3
1 6 4 3 2 1 1 0 0 -0 0 -0 -2 -1 -4 -4 -3 -1 2 2 -3 -6 1 -2 -2 -1 1 -0 4 -2 -3 1
6 1 -0 -0 2 2 1 -3 -4 0 0 -2 -1 -1 1 2 -2 -4 -2 2 -1 -0 -1 1 -2 -1 -2 3 -5 -3 0 -3
7 -3 -2 -0 -2 -1 -0 -3 0 5 -0 -1 0 1 -3 -2 -4 2 3 -2 -2 3 -6 1 3 -2 7 -3 -1 -4 -2 -4
7 -2 3 1 -1 -2 1 1 -1 -0 -3 -2 -1 -1 -3 -4 -2 -0 2 -2 -2 -3 -3 -1 -2 1 3 1 1 -1 -1 1
3 -1 0 1 1 4 -2 -3 -3 -2 -3 -3 -3 -1 -2 -1 -0 -4 1 -2 -2 -1 1 0 -1 1 -1 -2 -4 2 2 -4
-0 -1 0 1 3 -2 -3 -3 -1 -0 1 -1 -1 -2 -2 -2 -1 0 1 -0 0 -5 0 -0 -0 0 -1 -3 -2 -2 -2 0
Height
1505 1508 1507 1508 1507 1507 1508 1510 1510 1510 1510 1509 1510 1510 1507 1505 1504 1501 1497 1495 1492 1490 1489 1487 1483 1481 1479 1475 1471 1469 1466 1463
1503 1505 1506 1506 1505 1506 1507 1508 1508 1509 1509 1508 1508 1506 1504 1504 1502 1498 1496 1494 1491 1489 1488 1484 1481 1478 1475 1472 1468 1466 1464 1461
1500 1503 1504 1505 1504 1505 1507 1506 1506 1507 1506 1505 1504 1503 1502 1502 1501 1497 1496 1492 1490 1488 1485 1482 1479 1474 1472 1470 1466 1463 1461 1462
1496 1500 1502 1503 1503 1504 1505 1505 1505 1504 1504 1504 1503 1503 1503 1502 1499 1498 1495 1492 1489 1486 1483 1479 1475 1472 1469 1466 1464 1462 1460 1459
1492 1496 1499 1502 1501 1500 1501 1502 1503 1502 1502 1501 1500 1500 1500 1498 1498 1497 1493 1491 1487 1484 1481 1477 1473 1470 1466 1463 1462 1460 1458 1456
1489 1494 1497 1499 1499 1499 1499 1500 1500 1499 1499 1499 1498 1498 1498 1497 1496 1493 1492 1489 1486 1483 1479 1475 1471 1467 1463 1460 1458 1456 1455 1452
1486 1492 1495 1498 1497 1496 1497 1498 1498 1497 1498 1498 1496 1495 1495 1495 1494 1492 1489 1486 1484 1481 1476 1472 1467 1463 1460 1456 1454 1452 1450 1449
1483 1490 1495 1497 1497 1495 1495 1496 1497 1496 1496 1496 1494 1494 1493 1493 1492 1490 1486 1484 1481 1478 1473 1468 1463 1460 1457 1453 1450 1448 1446 1443
1480 1486 1491 1494 1495 1494 1493 1494 1496 1496 1495 1494 1493 1492 1492 1491 1489 1487 1485 1482 1478 1473 1469 1464 1460 1456 1452 1448 1445 1443 1441 1437
1478 1483 1487 1490 1492 1491 1490 1491 1493 1493 1492 1491 1491 1490 1489 1488 1485 1483 1482 1479 1475 1471 1466 1460 1455 1452 1448 1445 1442 1438 1434 1431
1476 1481 1485 1487 1487 1487 1487 1488 1490 1490 1489 1488 1488 1487 1484 1483 1480 1478 1476 1474 1471 1467 1462 1457 1451 1447 1444 1440 1437 1434 1429 1425
1475 1480 1484 1485 1485 1486 1486 1486 1488 1487 1487 1485 1485 1483 1480 1477 1475 1472 1470 1468 1466 1463 1458 1453 1447 1443 1439 1436 1433 1428 1425 1419
1474 1478 1481 1483 1484 1485 1485 1485 1485 1484 1483 1482 1482 1480 1478 1476 1473 1467 1464 1463 1462 1459 1454 1450 1444 1438 1434 1430 1428 1424 1418 1413
1472 1477 1478 1481 1482 1482 1483 1484 1483 1482 1481 1479 1479 1476 1474 1473 1470 1466 1462 1459 1455 1453 1451 1447 1441 1436 1431 1426 1422 1417 1412 1407
1468 1471 1475 1477 1479 1479 1479 1480 1480 1480 1479 1478 1477 1476 1474 1470 1466 1463 1462 1458 1453 1449 1446 1443 1440 1434 1428 1423 1416 1411 1405 1398
1466 1469 1472 1474 1477 1477 1477 1478 1479 1477 1477 1477 1476 1473 1471 1468 1464 1462 1458 1454 1450 1447 1442 1439 1435 1430 1427 1418 1413 1406 1398 1390
1464 1470 1470 1472 1474 1475 1476 1475 1476 1475 1474 1475 1474 1470 1467 1465 1463 1461 1456 1451 1446 1444 1440 1437 1432 1429 1422 1415 1409 1400 1392 1386
1463 1467 1471 1472 1472 1472 1473 1474 1473 1473 1473 1473 1471 1467 1466 1463 1461 1458 1455 1449 1445 1442 1438 1434 1430 1424 1418 1409 1404 1396 1389 1381
1462 1467 1469 1469 1471 1471 1471 1473 1473 1474 1472 1472 1469 1465 1463 1463 1460 1456 1452 1448 1444 1439 1437 1432 1426 1421 1415 1407 1399 1391 1384 1378